Location: La Coruña
(43.3623°N, 8.4115°W)
Time: 08:22:48
(UTC+01:00)

STARLINK-1083 - Pass Details

Date: 19 January 2020
Orbit: 348 x 351 km, 53.0° (Epoch: 23 February)

Event Time Altitude Azimuth Distance (km) Brightness Sun altitude
Rises 19:15:25 0° 245° (WSW) 2,152 9.0 -8.8°
Reaches altitude 10° 19:17:28 10° 251° (WSW) 1,313 7.3 -9.1°
Maximum altitude 19:20:19 50° 329° (NNW) 454 3.3 -9.6°
Enters shadow 19:22:45 13° 44° (NE) 1,142 4.7 -10.0°
